Location: *
(33.8649°S, 62.1526°E)
Time: 13:00:00
(UTC+00:00)

Cosmos 1954 Rocket - Pass Details

Date: 17 January 2021
Orbit: 752 x 781 km, 74.0° (Epoch: 02 March)

Event Time Altitude Azimuth Distance (km) Brightness Sun altitude
Exits shadow 22:58:41 42° 282° (WNW) 1,086 4.4 -21.2°
Maximum altitude 22:59:40 47° 250° (WSW) 1,006 4.4 -21.0°
Drops below altitude 10° 23:04:42 10° 176° (S) 2,306 7.1 -20.3°
Sets 23:07:11 0° 169° (S) 3,236 8.1 -19.9°
